Retour au catalogue

SRH1

ActifSciencePO
NORAD 58644·PAYLOAD·🇩🇪 Germany

Lancé Dec 24, 2023 depuis Vandenberg Space Force Base

Loading…

Prochains Passages (prochaines 24 heures)

TLE

VieillissantSource: Mike McCants

Époque: Sep 3, 2026, 20:03 UTC

1 58644U 23204B   26246.83577821 0.00000000  00000-0  00000-0 0    02
2 58644  88.1931 117.8236 0002207 144.5487 215.4512 15.20486858    08

Suivez SRH1 en temps réel avec AllMySat

Download on the App Store